Location: Asheville, NC
(35.6000°N, 82.5500°W)
Time: 14:08:57
(UTC-04:00)

Vanguard 1 Rocket - Pass Details

Date: 17 March 2018
Orbit: 653 x 4224 km, 34.3° (Epoch: 18 June)

Event Time Altitude Azimuth Distance (km) Brightness Sun altitude
Rises 16:33:09 0° 209° (SSW) 3,024 10.9 35.2°
Reaches altitude 10° 16:35:38 10° 192° (SSW) 2,253 10.1 34.8°
Maximum altitude 16:39:36 23° 140° (SE) 1,856 9.1 34.1°
Drops below altitude 10° 16:45:06 10° 91° (E) 3,242 9.9 33.1°
Sets 16:49:35 0° 79° (E) 4,802 10.6 32.3°
